Grand Island, NE

8:57 AM CST on December 15, 2017 (GMT -0600)
Central Nebraska Regional

Weather History for KGRI - February, 2013

Change the Weather History Date:

Tuesday, February 26, 2013

  Actual Average Record
Temperature  
Mean Temperature 23 °F 33 °F  
Max Temperature 29 °F 43 °F 75 °F (1896)
Min Temperature 16 °F 22 °F -15 °F (1934)
Degree Days  
Heating Degree Days 42 32  
Month to date heating degree days 884 942  
Since 1 July heating degree days 4399 4698  
Cooling Degree Days 0 0  
Month to date cooling degree days 0 0  
Year to date cooling degree days 0 0  
Moisture  
Dew Point 21 °F    
Average Humidity 92    
Maximum Humidity 100    
Minimum Humidity 84    
Precipitation  
Precipitation 0.00 in 0.03 in 0.45 in (1958)
Month to date precipitation 0.97 0.62  
Year to date precipitation 1.13 1.15  
Snow  
Snow 0.00 in 0.20 in 4.00 in (1915)
Month to date snowfall 11.0 5.9  
Since 1 July snowfall 21.4 21.7  
Snow Depth 6.00 in    
Sea Level Pressure  
Sea Level Pressure 29.92 in    
Wind  
Wind Speed 12 mph (North)    
Max Wind Speed 17 mph    
Max Gust Speed 20 mph    
Visibility 3 miles    
Events Fog    
T = Trace of Precipitation, MM = Missing Value Source: NWS Daily Summary

Daily Weather History Graph

Daily Weather History Graph

Search for Another Location

Airport or City:

Trip Planner

Search our weather history database for the weather conditions in past years. The results will help you decide how hot, cold, wet, or windy it might be!

Date:

Astronomy

Feb. 26, 2013 Rise Set
Actual Time 7:11 AM CST 6:21 PM CST
Civil Twilight 6:43 AM CST 6:48 PM CST
Nautical Twilight 6:12 AM CST 7:20 PM CST
Astronomical Twilight 5:40 AM CST 7:52 PM CST
Moon 7:40 PM CST (2/26) 7:14 AM CST (2/26)
Length of Visible Light 12h 05m
Length of Day
11h 09m
Full, 99% of the Moon is Illuminated
Feb 26
Full
Mar 4
Last Quarter
Mar 11
New
Mar 19
First Quarter
Mar 27
Full

Hourly Weather History & Observations

Time (CST) Temp. Windchill Dew Point Humidity Pressure Visibility Wind Dir Wind Speed Gust Speed Precip Events Conditions
12:26 AM 17.6 °F 9.3 °F 15.8 °F 93% 29.93 in 2.0 mi North 5.8 mph - N/A   Clear
12:33 AM 19.4 °F 11.5 °F 17.6 °F 93% 29.93 in 1.8 mi North 5.8 mph - N/A   Clear
12:48 AM 15.8 °F 5.1 °F 15.8 °F 100% 29.92 in 2.0 mi North 8.1 mph - N/A   Scattered Clouds
12:53 AM 17.1 °F 7.6 °F 16.0 °F 96% 29.99 in 3.0 mi North 6.9 mph - N/A   Mostly Cloudy
1:21 AM 21.2 °F 10.1 °F 19.4 °F 93% 29.90 in 4.0 mi NNE 10.4 mph - N/A   Overcast
1:33 AM 21.2 °F 10.1 °F 19.4 °F 93% 29.89 in 1.8 mi NNE 10.4 mph - N/A   Overcast
1:44 AM 21.2 °F 10.1 °F 19.4 °F 93% 29.90 in 0.5 mi North 10.4 mph - N/A Fog Light Freezing Fog
1:53 AM 21.0 °F 9.3 °F 19.9 °F 96% 29.95 in 0.5 mi North 11.5 mph - N/A Fog Light Freezing Fog
2:15 AM 21.2 °F 10.1 °F 19.4 °F 93% 29.89 in 0.2 mi North 10.4 mph - N/A Fog Light Freezing Fog
2:24 AM 21.2 °F 10.1 °F 19.4 °F 93% 29.90 in 0.5 mi North 10.4 mph - N/A Fog Light Freezing Fog
2:53 AM 21.0 °F 8.6 °F 19.9 °F 96% 29.96 in 0.8 mi North 12.7 mph - N/A   Mist
3:49 AM 21.2 °F 8.3 °F 19.4 °F 93% 29.87 in 1.0 mi North 13.8 mph - N/A   Overcast
3:53 AM 21.0 °F 9.3 °F 19.9 °F 96% 29.93 in 1.0 mi North 11.5 mph - N/A   Overcast
4:02 AM 21.2 °F 9.5 °F 19.4 °F 93% 29.86 in 0.5 mi NNW 11.5 mph - N/A Fog Light Freezing Fog
4:33 AM 21.2 °F 7.8 °F 19.4 °F 93% 29.84 in 1.0 mi North 15.0 mph - N/A   Overcast
4:53 AM 21.0 °F 7.6 °F 19.9 °F 96% 29.91 in 2.0 mi NNW 15.0 mph - N/A   Overcast
5:03 AM 21.2 °F 7.8 °F 19.4 °F 93% 29.85 in 1.5 mi NNW 15.0 mph - N/A   Overcast
5:17 AM 21.2 °F 9.5 °F 19.4 °F 93% 29.86 in 2.0 mi North 11.5 mph - N/A   Overcast
5:24 AM 21.2 °F 8.3 °F 19.4 °F 93% 29.86 in 1.5 mi North 13.8 mph - N/A   Overcast
5:34 AM 21.2 °F 8.9 °F 19.4 °F 93% 29.86 in 2.5 mi North 12.7 mph - N/A   Overcast
5:50 AM 21.2 °F 10.9 °F 19.4 °F 93% 29.86 in 1.5 mi North 9.2 mph - N/A   Overcast
5:53 AM 21.0 °F 10.6 °F 19.9 °F 96% 29.94 in 1.8 mi NNE 9.2 mph - N/A   Overcast
6:07 AM 21.2 °F 10.9 °F 19.4 °F 93% 29.87 in 2.0 mi NNE 9.2 mph - N/A   Overcast
6:40 AM 21.2 °F 9.5 °F 19.4 °F 93% 29.87 in 1.0 mi NNE 11.5 mph - N/A   Overcast
6:53 AM 21.9 °F 10.4 °F 19.9 °F 92% 29.94 in 1.2 mi North 11.5 mph - N/A   Overcast
7:16 AM 21.2 °F 8.9 °F 19.4 °F 93% 29.86 in 0.5 mi NNE 12.7 mph - N/A Fog Light Freezing Fog
7:53 AM 21.0 °F 10.6 °F 19.9 °F 96% 29.94 in 0.5 mi North 9.2 mph - N/A Fog Light Freezing Fog
8:41 AM 21.2 °F 10.1 °F 19.4 °F 93% 29.88 in 0.5 mi North 10.4 mph - N/A Fog Light Freezing Fog
8:53 AM 21.9 °F 11.0 °F 19.9 °F 92% 29.95 in 0.8 mi North 10.4 mph - N/A   Overcast
9:53 AM 23.0 °F 12.4 °F 21.0 °F 92% 29.96 in 1.0 mi North 10.4 mph - N/A   Overcast
10:53 AM 23.0 °F 11.7 °F 21.9 °F 96% 29.94 in 1.5 mi North 11.5 mph - N/A   Overcast
11:26 AM 24.8 °F 13.4 °F 21.2 °F 86% 29.86 in 2.5 mi North 12.7 mph - N/A   Overcast
11:48 AM 24.8 °F 14.6 °F 23.0 °F 93% 29.86 in 3.0 mi North 10.4 mph - N/A   Overcast
11:53 AM 25.0 °F 14.2 °F 23.0 °F 92% 29.94 in 2.5 mi North 11.5 mph - N/A   Overcast
12:09 PM 24.8 °F 14.6 °F 23.0 °F 93% 29.86 in 3.0 mi North 10.4 mph - N/A   Overcast
12:30 PM 24.8 °F 14.0 °F 23.0 °F 93% 29.86 in 3.0 mi North 11.5 mph - N/A   Overcast
12:53 PM 26.1 °F 15.6 °F 23.0 °F 88% 29.93 in 4.0 mi North 11.5 mph - N/A   Overcast
1:53 PM 26.1 °F 14.5 °F 24.1 °F 92% 29.91 in 5.0 mi North 13.8 mph - N/A   Overcast
2:53 PM 28.0 °F 17.0 °F 25.0 °F 88% 29.91 in 5.0 mi North 13.8 mph - N/A   Overcast
3:53 PM 28.0 °F 16.5 °F 25.0 °F 88% 29.91 in 4.0 mi North 15.0 mph - N/A   Overcast
4:00 PM 28.4 °F 17.5 °F 24.8 °F 86% 29.85 in 4.0 mi North 13.8 mph - N/A   Overcast
4:53 PM 28.9 °F 18.2 °F 25.0 °F 85% 29.93 in 4.0 mi North 13.8 mph - N/A   Overcast
5:53 PM 28.9 °F 18.2 °F 25.0 °F 85% 29.96 in 4.0 mi North 13.8 mph - N/A   Overcast
6:53 PM 28.0 °F 17.5 °F 25.0 °F 88% 29.97 in 6.0 mi North 12.7 mph - N/A   Overcast
7:34 PM 28.4 °F 18.5 °F 24.8 °F 86% 29.91 in 6.0 mi North 11.5 mph - N/A   Overcast
7:46 PM 28.4 °F 17.5 °F 24.8 °F 86% 29.91 in 7.0 mi North 13.8 mph - N/A   Overcast
7:53 PM 28.0 °F 17.5 °F 25.0 °F 88% 29.99 in 7.0 mi North 12.7 mph - N/A   Overcast
8:10 PM 28.4 °F 19.1 °F 24.8 °F 86% 29.92 in 6.0 mi NNW 10.4 mph - N/A   Overcast
8:53 PM 27.0 °F 16.1 °F 25.0 °F 92% 30.00 in 7.0 mi NNW 12.7 mph - N/A   Overcast
9:53 PM 26.1 °F 15.0 °F 23.0 °F 88% 30.02 in 9.0 mi North 12.7 mph - N/A   Overcast
10:28 PM 26.6 °F 16.2 °F 23.0 °F 86% 29.95 in 10.0 mi North 11.5 mph - N/A   Overcast
10:53 PM 26.1 °F 16.8 °F 23.0 °F 88% 30.03 in 9.0 mi North 9.2 mph - N/A   Overcast
11:53 PM 26.1 °F 15.6 °F 23.0 °F 88% 30.03 in 9.0 mi NNW 11.5 mph - N/A   Overcast